N21SZ KBUR-KSAN

Flight info

Callsign N21SZ
Flight time 1h 12m
Altitude 7000
Route KBUR ELMOO9 V186 V363 V25 GATTO ILSZRW9 KSAN
Aircraft C172/L-G/C

Departure

Time 2026-05-06 04:14
Airport Hollywood Burbank/Bob Hope Airport (KBUR)

Arrival

Time 2026-05-06 05:27
Airport San Diego International Airport (KSAN)
Time Latitude Longitude Altitude Speed Heading
2026-05-06 03:28 34.20797 -118.36084 738 ft 0 kts 27°
2026-05-06 04:09 34.20809 -118.36077 738 ft 6 kts 12°
2026-05-06 04:09 34.20855 -118.36084 739 ft 7 kts 349°
2026-05-06 04:09 34.20907 -118.36100 740 ft 9 kts 346°
2026-05-06 04:10 34.20971 -118.36092 742 ft 10 kts
2026-05-06 04:10 34.21050 -118.36110 744 ft 12 kts 346°
2026-05-06 04:10 34.21141 -118.36136 744 ft 15 kts 346°
2026-05-06 04:10 34.21190 -118.36137 743 ft 0 kts 39°
2026-05-06 04:13 34.21191 -118.36137 743 ft 1 kts 40°
2026-05-06 04:13 34.21209 -118.36064 741 ft 14 kts 109°
2026-05-06 04:13 34.21084 -118.36004 741 ft 37 kts 168°
2026-05-06 04:13 34.20694 -118.35898 748 ft 73 kts 168°
2026-05-06 04:14 34.20180 -118.35773 903 ft 78 kts 168°
2026-05-06 04:14 34.19624 -118.35673 1087 ft 83 kts 172°
2026-05-06 04:14 34.19043 -118.35612 1302 ft 81 kts 172°
2026-05-06 04:14 34.18550 -118.35385 1538 ft 76 kts 142°
2026-05-06 04:15 34.18211 -118.34899 1749 ft 72 kts 116°
2026-05-06 04:15 34.17969 -118.34305 1856 ft 82 kts 116°
2026-05-06 04:15 34.17738 -118.33686 2034 ft 82 kts 113°
2026-05-06 04:15 34.17481 -118.33037 2154 ft 89 kts 118°
2026-05-06 04:16 34.17272 -118.32369 2373 ft 82 kts 100°
2026-05-06 04:16 34.17180 -118.31659 2498 ft 87 kts 99°
2026-05-06 04:16 34.17061 -118.30943 2637 ft 89 kts 102°
2026-05-06 04:16 34.16979 -118.30231 2836 ft 84 kts 98°
2026-05-06 04:17 34.16822 -118.29543 2981 ft 86 kts 107°
2026-05-06 04:17 34.16657 -118.28826 3131 ft 88 kts 106°
2026-05-06 04:17 34.16436 -118.28122 3294 ft 89 kts 110°
2026-05-06 04:17 34.16194 -118.27431 3459 ft 87 kts 111°
2026-05-06 04:18 34.16024 -118.26731 3595 ft 90 kts 104°
2026-05-06 04:18 34.15859 -118.25996 3731 ft 92 kts 111°
2026-05-06 04:18 34.15635 -118.25278 3898 ft 90 kts 109°
2026-05-06 04:18 34.15412 -118.24557 4029 ft 93 kts 111°
2026-05-06 04:19 34.15201 -118.23832 4190 ft 91 kts 111°
2026-05-06 04:19 34.15010 -118.23118 4349 ft 90 kts 107°
2026-05-06 04:19 34.14785 -118.22398 4476 ft 93 kts 114°
2026-05-06 04:19 34.14528 -118.21682 4630 ft 93 kts 112°
2026-05-06 04:20 34.14335 -118.20940 4764 ft 94 kts 98°
2026-05-06 04:20 34.14150 -118.20202 4951 ft 87 kts 109°
2026-05-06 04:20 34.13897 -118.19504 5041 ft 93 kts 117°
2026-05-06 04:20 34.13592 -118.18824 5198 ft 91 kts 114°
2026-05-06 04:21 34.13334 -118.18135 5343 ft 90 kts 112°
2026-05-06 04:21 34.13085 -118.17413 5470 ft 90 kts 109°
2026-05-06 04:21 34.12908 -118.16714 5581 ft 92 kts 109°
2026-05-06 04:21 34.12705 -118.15975 5723 ft 91 kts 109°
2026-05-06 04:22 34.12483 -118.15247 5852 ft 92 kts 109°
2026-05-06 04:22 34.12242 -118.14528 5986 ft 92 kts 115°
2026-05-06 04:22 34.11960 -118.13851 6122 ft 91 kts 120°
2026-05-06 04:23 34.11614 -118.12411 6352 ft 88 kts 99°
2026-05-06 04:23 34.11501 -118.11661 6425 ft 94 kts 101°
2026-05-06 04:23 34.11294 -118.10916 6541 ft 92 kts 106°
2026-05-06 04:23 34.11066 -118.10176 6622 ft 96 kts 114°
2026-05-06 04:24 34.10821 -118.09480 6760 ft 92 kts 113°
2026-05-06 04:24 34.10546 -118.08751 6833 ft 95 kts 110°
2026-05-06 04:24 34.10348 -118.08010 6941 ft 95 kts 102°
2026-05-06 04:24 34.10012 -118.07329 7044 ft 94 kts 131°
2026-05-06 04:25 34.09486 -118.06871 7152 ft 93 kts 147°
2026-05-06 04:25 34.08940 -118.06461 7246 ft 94 kts 153°
2026-05-06 04:25 34.08363 -118.06153 7372 ft 91 kts 155°
2026-05-06 04:25 34.07751 -118.05925 7454 ft 91 kts 168°
2026-05-06 04:26 34.07115 -118.05714 7472 ft 99 kts 165°
2026-05-06 04:26 34.06448 -118.05604 7581 ft 97 kts 175°
2026-05-06 04:26 34.05843 -118.05298 7677 ft 93 kts 137°
2026-05-06 04:26 34.05375 -118.04757 7731 ft 96 kts 131°
2026-05-06 04:27 34.04874 -118.04286 7846 ft 94 kts 144°
2026-05-06 04:27 34.04296 -118.03865 7913 ft 93 kts 139°
2026-05-06 04:27 34.03804 -118.03367 7962 ft 96 kts 130°
2026-05-06 04:27 34.03405 -118.02816 8088 ft 86 kts 120°
2026-05-06 04:28 34.02976 -118.02277 8163 ft 85 kts 134°
2026-05-06 04:28 34.02496 -118.01858 8235 ft 87 kts 139°
2026-05-06 04:28 34.01950 -118.01454 8294 ft 90 kts 144°
2026-05-06 04:28 34.01415 -118.01047 8329 ft 94 kts 140°
2026-05-06 04:29 34.00908 -118.00592 8421 ft 90 kts 139°
2026-05-06 04:29 34.00385 -118.00200 8480 ft 90 kts 146°
2026-05-06 04:29 33.99853 -117.99862 8578 ft 85 kts 143°
2026-05-06 04:29 33.99338 -117.99483 8605 ft 88 kts 141°
2026-05-06 04:30 33.98855 -117.99057 8671 ft 85 kts 133°
2026-05-06 04:30 33.98403 -117.98593 8726 ft 86 kts 135°
2026-05-06 04:30 33.97912 -117.98183 8804 ft 86 kts 142°
2026-05-06 04:30 33.97414 -117.97787 8863 ft 85 kts 138°
2026-05-06 04:31 33.96944 -117.97347 8906 ft 85 kts 130°
2026-05-06 04:31 33.96487 -117.96890 8947 ft 85 kts 135°
2026-05-06 04:31 33.96036 -117.96451 8965 ft 87 kts 130°
2026-05-06 04:31 33.95612 -117.95986 9066 ft 85 kts 129°
2026-05-06 04:32 33.95116 -117.95482 9086 ft 93 kts 141°
2026-05-06 04:32 33.94542 -117.95075 9104 ft 102 kts 148°
2026-05-06 04:32 33.93857 -117.94722 9108 ft 110 kts 157°
2026-05-06 04:32 33.93120 -117.94439 9167 ft 107 kts 146°
2026-05-06 04:33 33.92466 -117.93940 9140 ft 115 kts 142°
2026-05-06 04:33 33.91775 -117.93448 9139 ft 120 kts 147°
2026-05-06 04:33 33.91033 -117.92932 9117 ft 122 kts 140°
2026-05-06 04:33 33.90392 -117.92275 9176 ft 116 kts 132°
2026-05-06 04:34 33.89795 -117.91562 9017 ft 131 kts 129°
2026-05-06 04:34 33.89199 -117.90771 9098 ft 121 kts 123°
2026-05-06 04:34 33.88568 -117.90032 8934 ft 136 kts 139°
2026-05-06 04:34 33.87854 -117.89381 9057 ft 123 kts 135°
2026-05-06 04:35 33.87184 -117.88732 9001 ft 128 kts 139°
2026-05-06 04:35 33.86460 -117.88113 9003 ft 128 kts 143°
2026-05-06 04:35 33.85678 -117.87599 9019 ft 128 kts 148°
2026-05-06 04:35 33.84902 -117.87089 9025 ft 127 kts 145°
2026-05-06 04:36 33.84137 -117.86551 9026 ft 127 kts 144°
2026-05-06 04:36 33.83382 -117.85997 9030 ft 127 kts 145°
2026-05-06 04:36 33.82597 -117.85497 9034 ft 128 kts 150°
2026-05-06 04:36 33.81781 -117.85064 9041 ft 128 kts 150°
2026-05-06 04:37 33.81014 -117.84538 9048 ft 127 kts 140°
2026-05-06 04:37 33.80305 -117.83936 9048 ft 126 kts 140°
2026-05-06 04:37 33.79579 -117.83338 9051 ft 127 kts 141°
2026-05-06 04:37 33.78840 -117.82757 9062 ft 127 kts 143°
2026-05-06 04:38 33.78087 -117.82206 9062 ft 127 kts 145°
2026-05-06 04:38 33.77312 -117.81682 9067 ft 127 kts 147°
2026-05-06 04:38 33.76536 -117.81175 9074 ft 127 kts 146°
2026-05-06 04:38 33.75744 -117.80660 9013 ft 132 kts 148°
2026-05-06 04:39 33.75203 -117.80342 9059 ft 128 kts 150°
2026-05-06 04:39 33.74410 -117.79886 9056 ft 130 kts 149°
2026-05-06 04:39 33.73655 -117.79263 8972 ft 133 kts 140°
2026-05-06 04:39 33.72885 -117.78662 9004 ft 128 kts 143°
2026-05-06 04:40 33.72162 -117.78074 8971 ft 131 kts 141°
2026-05-06 04:40 33.71382 -117.77449 8894 ft 133 kts 143°
2026-05-06 04:40 33.70423 -117.76621 8919 ft 127 kts 128°
2026-05-06 04:40 33.70078 -117.76056 8926 ft 124 kts 119°
2026-05-06 04:41 33.69573 -117.75219 8952 ft 122 kts 124°
2026-05-06 04:41 33.68920 -117.74552 8927 ft 125 kts 140°
2026-05-06 04:41 33.68222 -117.74001 9012 ft 119 kts 139°
2026-05-06 04:41 33.67529 -117.73398 8979 ft 123 kts 139°
2026-05-06 04:42 33.66855 -117.72805 9038 ft 120 kts 136°
2026-05-06 04:42 33.66201 -117.72148 9013 ft 123 kts 135°
2026-05-06 04:42 33.65537 -117.71524 9064 ft 121 kts 138°
2026-05-06 04:42 33.64826 -117.70949 9043 ft 125 kts 142°
2026-05-06 04:43 33.64128 -117.70358 9089 ft 121 kts 135°
2026-05-06 04:43 33.63478 -117.69671 8962 ft 131 kts 132°
2026-05-06 04:43 33.62819 -117.68946 9009 ft 125 kts 135°
2026-05-06 04:43 33.62087 -117.68383 8966 ft 130 kts 147°
2026-05-06 04:44 33.61282 -117.67900 8966 ft 129 kts 149°
2026-05-06 04:44 33.60458 -117.67459 8938 ft 131 kts 155°
2026-05-06 04:44 33.59637 -117.67043 8981 ft 124 kts 146°
2026-05-06 04:44 33.58920 -117.66462 8943 ft 128 kts 139°
2026-05-06 04:45 33.58212 -117.65843 8984 ft 123 kts 136°
2026-05-06 04:45 33.57504 -117.65219 8918 ft 129 kts 140°
2026-05-06 04:45 33.56813 -117.64665 9125 ft 113 kts 139°
2026-05-06 04:45 33.56127 -117.64095 9014 ft 126 kts 138°
2026-05-06 04:46 33.55497 -117.63446 9132 ft 115 kts 128°
2026-05-06 04:46 33.54891 -117.62765 9045 ft 125 kts 133°
2026-05-06 04:46 33.54243 -117.62107 9105 ft 122 kts 140°
2026-05-06 04:46 33.53483 -117.61585 9014 ft 131 kts 147°
2026-05-06 04:47 33.52681 -117.61131 9101 ft 124 kts 152°
2026-05-06 04:47 33.51886 -117.60698 9056 ft 129 kts 153°
2026-05-06 04:47 33.51175 -117.60102 9063 ft 124 kts 134°
2026-05-06 04:47 33.50475 -117.59486 9074 ft 127 kts 143°
2026-05-06 04:48 33.49790 -117.58857 9070 ft 124 kts 129°
2026-05-06 04:48 33.49153 -117.58142 9010 ft 130 kts 132°
2026-05-06 04:48 33.48455 -117.57465 9053 ft 126 kts 135°
2026-05-06 04:48 33.47765 -117.56761 8903 ft 137 kts 132°
2026-05-06 04:49 33.47096 -117.56013 8988 ft 127 kts 134°
2026-05-06 04:49 33.46309 -117.55454 8887 ft 137 kts 151°
2026-05-06 04:49 33.45470 -117.55007 8940 ft 128 kts 144°
2026-05-06 04:49 33.44792 -117.54339 8945 ft 126 kts 133°
2026-05-06 04:50 33.44029 -117.53796 8995 ft 124 kts 154°
2026-05-06 04:50 33.43252 -117.53466 9068 ft 122 kts 153°
2026-05-06 04:50 33.42460 -117.53124 9086 ft 122 kts 147°
2026-05-06 04:50 33.41760 -117.52572 9201 ft 113 kts 135°
2026-05-06 04:51 33.41084 -117.51879 8982 ft 132 kts 132°
2026-05-06 04:51 33.40417 -117.51174 9049 ft 126 kts 134°
2026-05-06 04:51 33.39768 -117.50474 8992 ft 128 kts 133°
2026-05-06 04:51 33.39020 -117.49865 8993 ft 129 kts 142°
2026-05-06 04:52 33.38308 -117.49250 9016 ft 126 kts 135°
2026-05-06 04:52 33.37562 -117.48631 8944 ft 133 kts 144°
2026-05-06 04:52 33.36774 -117.48142 9064 ft 127 kts 156°
2026-05-06 04:52 33.35866 -117.47938 8986 ft 137 kts 174°
2026-05-06 04:53 33.35017 -117.47633 9032 ft 125 kts 138°
2026-05-06 04:53 33.34390 -117.46920 9040 ft 122 kts 126°
2026-05-06 04:53 33.33838 -117.46189 9067 ft 122 kts 129°
2026-05-06 04:53 33.33208 -117.45489 9042 ft 123 kts 131°
2026-05-06 04:54 33.32577 -117.44800 9046 ft 124 kts 134°
2026-05-06 04:54 33.31903 -117.44175 8990 ft 116 kts 142°
2026-05-06 04:54 33.31151 -117.43825 8743 ft 108 kts 171°
2026-05-06 04:54 33.30446 -117.43896 8628 ft 118 kts 177°
2026-05-06 04:55 33.29799 -117.43605 8750 ft 99 kts 139°
2026-05-06 04:55 33.29174 -117.42988 8555 ft 107 kts 132°
2026-05-06 04:55 33.28776 -117.42517 8765 ft 99 kts 131°
2026-05-06 04:55 33.28228 -117.42009 8782 ft 107 kts 140°
2026-05-06 04:56 33.27635 -117.41515 8892 ft 101 kts 139°
2026-05-06 04:56 33.27073 -117.41033 9049 ft 92 kts 139°
2026-05-06 04:56 33.26557 -117.40478 8964 ft 110 kts 131°
2026-05-06 04:56 33.26005 -117.39947 9104 ft 103 kts 135°
2026-05-06 04:57 33.25386 -117.39461 9200 ft 98 kts 150°
2026-05-06 04:57 33.24698 -117.39189 9145 ft 114 kts 156°
2026-05-06 04:57 33.24004 -117.38735 9113 ft 116 kts 141°
2026-05-06 04:57 33.23380 -117.38264 9253 ft 103 kts 144°
2026-05-06 04:58 33.22734 -117.37757 9154 ft 113 kts 141°
2026-05-06 04:58 33.22071 -117.37251 9188 ft 109 kts 143°
2026-05-06 04:58 33.21448 -117.36750 9073 ft 120 kts 143°
2026-05-06 04:58 33.20687 -117.36292 9019 ft 122 kts 147°
2026-05-06 04:59 33.20087 -117.35630 9010 ft 115 kts 126°
2026-05-06 04:59 33.19464 -117.35046 9015 ft 118 kts 148°
2026-05-06 04:59 33.18774 -117.34512 8983 ft 116 kts 139°
2026-05-06 04:59 33.18118 -117.33977 8991 ft 117 kts 140°
2026-05-06 05:00 33.17457 -117.33406 9007 ft 114 kts 139°
2026-05-06 05:00 33.16814 -117.32847 8964 ft 117 kts 135°
2026-05-06 05:00 33.16243 -117.32170 8984 ft 113 kts 130°
2026-05-06 05:00 33.15563 -117.31628 8886 ft 123 kts 145°
2026-05-06 05:01 33.14891 -117.31078 9003 ft 111 kts 135°
2026-05-06 05:01 33.14362 -117.30381 8930 ft 116 kts 117°
2026-05-06 05:01 33.13722 -117.29765 8883 ft 115 kts 141°
2026-05-06 05:01 33.13126 -117.29229 8884 ft 115 kts 140°
2026-05-06 05:02 33.12373 -117.28909 8961 ft 109 kts 156°
2026-05-06 05:02 33.11741 -117.28477 8988 ft 110 kts 141°
2026-05-06 05:02 33.11151 -117.27921 9105 ft 103 kts 133°
2026-05-06 05:02 33.10580 -117.27331 9105 ft 109 kts 138°
2026-05-06 05:03 33.09898 -117.26905 9126 ft 113 kts 150°
2026-05-06 05:03 33.09185 -117.26448 9110 ft 116 kts 142°
2026-05-06 05:03 33.08533 -117.25888 9112 ft 120 kts 142°
2026-05-06 05:03 33.07819 -117.25386 9192 ft 114 kts 151°
2026-05-06 05:04 33.07106 -117.24942 9190 ft 114 kts 140°
2026-05-06 05:04 33.06432 -117.24367 9086 ft 125 kts 143°
2026-05-06 05:04 33.05717 -117.23794 9053 ft 128 kts 143°
2026-05-06 05:04 33.04981 -117.23148 8930 ft 131 kts 134°
2026-05-06 05:05 33.04290 -117.22454 8793 ft 124 kts 139°
2026-05-06 05:05 33.03600 -117.21845 8587 ft 128 kts 142°
2026-05-06 05:05 33.02866 -117.21234 8391 ft 129 kts 143°
2026-05-06 05:05 33.02104 -117.20656 8218 ft 128 kts 150°
2026-05-06 05:06 33.01347 -117.20070 7932 ft 134 kts 141°
2026-05-06 05:06 33.00651 -117.19372 7680 ft 136 kts 137°
2026-05-06 05:06 32.99898 -117.18649 7493 ft 134 kts 139°
2026-05-06 05:06 32.99149 -117.17947 7221 ft 138 kts 144°
2026-05-06 05:07 32.98323 -117.17437 7046 ft 133 kts 144°
2026-05-06 05:07 32.97581 -117.16744 6786 ft 135 kts 137°
2026-05-06 05:07 32.96876 -117.16053 6649 ft 129 kts 137°
2026-05-06 05:07 32.96194 -117.15341 6436 ft 131 kts 136°
2026-05-06 05:08 32.95522 -117.14605 6254 ft 130 kts 136°
2026-05-06 05:08 32.94868 -117.13901 6085 ft 129 kts 138°
2026-05-06 05:08 32.94171 -117.13244 6018 ft 125 kts 142°
2026-05-06 05:08 32.93424 -117.12668 5896 ft 130 kts 148°
2026-05-06 05:09 32.92879 -117.11975 6029 ft 112 kts 115°
2026-05-06 05:09 32.92543 -117.11122 6019 ft 110 kts 108°
2026-05-06 05:09 32.92201 -117.10294 5998 ft 113 kts 116°
2026-05-06 05:09 32.91815 -117.09473 5986 ft 116 kts 117°
2026-05-06 05:10 32.91406 -117.08671 6079 ft 113 kts 120°
2026-05-06 05:10 32.90922 -117.07892 6071 ft 118 kts 126°
2026-05-06 05:10 32.90514 -117.07116 6152 ft 114 kts 114°
2026-05-06 05:10 32.90126 -117.06275 6154 ft 117 kts 115°
2026-05-06 05:11 32.89749 -117.05407 6129 ft 122 kts 115°
2026-05-06 05:11 32.89358 -117.04530 6220 ft 115 kts 114°
2026-05-06 05:11 32.88953 -117.03640 6111 ft 127 kts 116°
2026-05-06 05:11 32.88538 -117.02727 6129 ft 125 kts 115°
2026-05-06 05:12 32.88120 -117.01812 6125 ft 126 kts 117°
2026-05-06 05:12 32.87668 -117.00912 6103 ft 128 kts 119°
2026-05-06 05:12 32.87178 -117.00031 6112 ft 126 kts 123°
2026-05-06 05:12 32.86691 -116.99175 6107 ft 126 kts 121°
2026-05-06 05:13 32.86139 -116.98350 6063 ft 128 kts 132°
2026-05-06 05:13 32.85577 -116.97555 6116 ft 120 kts 117°
2026-05-06 05:13 32.85161 -116.96665 6022 ft 129 kts 115°
2026-05-06 05:13 32.84761 -116.95738 6095 ft 121 kts 113°
2026-05-06 05:14 32.84388 -116.94824 6037 ft 127 kts 114°
2026-05-06 05:14 32.83788 -116.94061 5978 ft 131 kts 151°
2026-05-06 05:14 32.82991 -116.93664 6062 ft 123 kts 160°
2026-05-06 05:14 32.82178 -116.93339 6121 ft 118 kts 158°
2026-05-06 05:15 32.81404 -116.93007 6102 ft 123 kts 156°
2026-05-06 05:15 32.80597 -116.92539 5887 ft 139 kts 149°
2026-05-06 05:15 32.79751 -116.91991 5808 ft 136 kts 156°
2026-05-06 05:15 32.78881 -116.91591 5682 ft 134 kts 162°
2026-05-06 05:16 32.78014 -116.91207 5582 ft 132 kts 155°
2026-05-06 05:16 32.77186 -116.90739 5504 ft 128 kts 154°
2026-05-06 05:16 32.76374 -116.90279 5311 ft 135 kts 152°
2026-05-06 05:16 32.75600 -116.89807 5364 ft 121 kts 158°
2026-05-06 05:17 32.74808 -116.89457 5301 ft 121 kts 162°
2026-05-06 05:17 32.74017 -116.89106 5163 ft 126 kts 168°
2026-05-06 05:17 32.73120 -116.89068 5044 ft 125 kts 194°
2026-05-06 05:17 32.72349 -116.89496 4893 ft 126 kts 215°
2026-05-06 05:18 32.71605 -116.90063 4743 ft 128 kts 215°
2026-05-06 05:18 32.70873 -116.90642 4634 ft 125 kts 217°
2026-05-06 05:18 32.70164 -116.91218 4578 ft 120 kts 213°
2026-05-06 05:18 32.69416 -116.91696 4403 ft 126 kts 213°
2026-05-06 05:19 32.68674 -116.92220 4249 ft 123 kts 220°
2026-05-06 05:19 32.68207 -116.93056 4071 ft 121 kts 254°
2026-05-06 05:19 32.67942 -116.93947 4077 ft 114 kts 255°
2026-05-06 05:19 32.67678 -116.94861 3919 ft 121 kts 253°
2026-05-06 05:20 32.67598 -116.95822 3809 ft 117 kts 288°
2026-05-06 05:20 32.67827 -116.96744 3665 ft 118 kts 284°
2026-05-06 05:20 32.68027 -116.97681 3583 ft 117 kts 278°
2026-05-06 05:20 32.68141 -116.98649 3506 ft 115 kts 279°
2026-05-06 05:21 32.68270 -116.99591 3364 ft 119 kts 285°
2026-05-06 05:21 32.68532 -117.00516 3171 ft 117 kts 285°
2026-05-06 05:21 32.68702 -117.01454 2954 ft 115 kts 277°
2026-05-06 05:21 32.68834 -117.02401 2648 ft 120 kts 284°
2026-05-06 05:22 32.69110 -117.03289 2513 ft 113 kts 294°
2026-05-06 05:22 32.69509 -117.04078 2353 ft 111 kts 301°
2026-05-06 05:22 32.69830 -117.04943 2060 ft 117 kts 285°
2026-05-06 05:22 32.70081 -117.05863 1830 ft 116 kts 290°
2026-05-06 05:23 32.70320 -117.06728 1754 ft 102 kts 287°
2026-05-06 05:23 32.70515 -117.07512 1572 ft 99 kts 283°
2026-05-06 05:23 32.70884 -117.09060 1277 ft 91 kts 287°
2026-05-06 05:24 32.71080 -117.09782 1168 ft 93 kts 287°
2026-05-06 05:24 32.71276 -117.10497 1104 ft 91 kts 288°
2026-05-06 05:24 32.71470 -117.11222 1005 ft 94 kts 284°
2026-05-06 05:24 32.71636 -117.11942 978 ft 84 kts 284°
2026-05-06 05:25 32.71802 -117.12583 905 ft 79 kts 285°
2026-05-06 05:25 32.71965 -117.13202 845 ft 77 kts 285°
2026-05-06 05:25 32.72120 -117.13808 806 ft 77 kts 284°
2026-05-06 05:25 32.72269 -117.14436 744 ft 80 kts 282°
2026-05-06 05:26 32.72417 -117.15088 640 ft 84 kts 283°
2026-05-06 05:26 32.72565 -117.15708 536 ft 74 kts 283°
2026-05-06 05:26 32.72720 -117.16270 401 ft 70 kts 286°
2026-05-06 05:26 32.72858 -117.16807 307 ft 66 kts 280°
2026-05-06 05:27 32.72965 -117.17330 209 ft 64 kts 281°
2026-05-06 05:27 32.73075 -117.17803 103 ft 57 kts 282°
2026-05-06 05:27 32.73169 -117.18218 28 ft 44 kts 283°
2026-05-06 05:27 32.73229 -117.18500 28 ft 28 kts 282°
2026-05-06 05:28 32.73274 -117.18682 28 ft 17 kts 296°
2026-05-06 05:28 32.73288 -117.18766 22 ft 13 kts 271°
2026-05-06 05:28 32.73261 -117.18856 21 ft 6 kts 210°
2026-05-06 05:28 32.73246 -117.18862 22 ft 0 kts 180°
2026-05-06 05:29 32.73238 -117.18862 22 ft 1 kts 181°
2026-05-06 05:29 32.73233 -117.18863 22 ft 3 kts 193°
2026-05-06 05:29 32.73207 -117.18914 21 ft 13 kts 264°
2026-05-06 05:29 32.73193 -117.19045 21 ft 16 kts 237°
2026-05-06 05:30 32.73148 -117.19111 21 ft 5 kts 222°